Vorticity
7 9 10 12 13 14 15 16 17 16 14 12 12 13 15 16 15 14 14 14 13 11 10 9 8 9 10 11 11 11 11 9 6 2 -1 -1 1 3 3 16 17 3 -33 -14 5 18 17 10 6 5 6 6 6 4 4 4 4 4 4 5 5 5 4 5 5 7 9 10 10 9 6 6 5 6 7 7 7 7 7 9 9 9 8 7 5 4 3 3 3 4 4 4 4 4 3 3 3 3 3 3 3 3 3
8 10 12 13 14 16 17 18 19 20 20 18 17 16 16 18 18 17 17 18 17 14 12 10 9 8 9 10 10 11 10 10 9 6 1 -2 -2 -1 -1 9 23 16 -40 -35 -6 22 24 16 10 5 5 6 5 5 4 4 4 4 2 2 3 3 3 4 5 6 10 10 10 9 7 6 6 6 7 7 7 7 7 9 9 9 8 7 5 4 3 3 4 4 4 4 4 4 3 3 3 3 3 3 3 3 3
10 12 14 15 15 16 16 17 18 20 21 21 19 18 17 18 19 19 19 19 19 18 14 12 10 9 8 9 10 10 10 11 10 8 5 -0 -3 -5 -4 -1 17 26 1 -37 -17 18 25 18 12 8 5 4 4 5 4 5 5 4 1 1 1 2 2 3 4 7 13 11 10 9 7 6 6 6 7 7 7 7 7 8 9 9 8 7 5 4 3 3 4 4 5 4 4 4 3 3 3 3 3 3 3 3 4
12 14 16 17 16 16 15 16 16 18 19 21 20 19 17 18 19 20 20 20 21 20 17 14 12 10 9 9 9 10 10 10 11 10 8 3 -3 -6 -6 -5 5 21 41 -2 -9 5 24 16 12 9 7 3 3 4 4 5 6 5 2 1 1 0 1 2 4 8 16 10 9 9 8 7 6 6 7 7 7 7 7 8 9 9 8 6 5 3 3 3 3 4 5 5 4 4 3 3 3 3 3 3 3 4 4
14 16 18 18 17 17 15 15 15 15 17 19 20 20 18 18 18 20 21 21 22 22 19 15 13 11 9 9 9 9 10 10 11 11 10 6 0 -5 -7 -5 -3 5 27 32 9 -7 15 15 10 6 8 3 1 2 3 5 7 7 3 1 0 0 0 2 5 9 16 9 8 9 9 7 6 6 7 7 7 7 7 8 8 8 8 6 5 4 3 3 3 4 5 5 4 4 4 3 3 3 3 3 3 4 4
15 17 18 18 18 17 15 14 13 13 15 17 19 20 19 18 18 19 20 21 22 22 21 16 13 12 10 9 8 9 10 10 10 11 11 9 4 -2 -7 -6 -5 -3 2 28 15 -7 -9 13 12 4 5 3 0 -1 2 4 7 7 4 2 1 1 1 2 5 8 11 7 8 10 8 7 6 6 6 7 7 7 6 7 8 8 7 6 5 4 3 3 3 4 4 4 4 4 4 3 3 3 3 3 3 4 4
16 17 18 18 17 17 15 14 13 12 12 15 17 19 19 17 17 18 19 20 21 22 21 17 14 12 11 10 9 8 9 10 10 10 11 11 8 3 -4 -5 -5 -5 -6 8 14 6 -23 3 10 7 4 3 -0 -2 1 4 6 7 4 3 2 2 2 3 5 8 9 8 9 10 8 7 6 6 6 7 7 7 6 6 7 7 7 6 5 4 3 3 3 4 4 5 4 4 4 3 3 3 2 3 3 4 4
16 17 16 16 16 16 16 15 14 13 12 13 15 16 17 16 15 15 17 19 20 21 22 19 15 12 11 10 9 8 8 10 10 10 11 11 10 7 2 -3 -4 -4 -5 -1 12 17 -4 -4 3 8 4 4 -0 -3 -0 4 6 7 5 3 3 2 2 4 6 8 9 8 9 9 8 7 6 5 6 6 7 7 6 6 6 6 6 5 5 4 3 3 3 4 5 5 5 4 4 3 3 3 3 3 3 4 4
15 15 14 14 14 15 15 16 16 15 14 14 15 15 15 14 13 13 14 16 18 20 21 20 16 12 10 10 10 8 8 9 10 10 10 11 11 10 6 1 -1 -2 -4 -5 6 18 19 1 -0 5 5 5 1 -3 -2 3 5 6 6 4 3 3 2 3 5 7 9 9 9 9 8 7 6 5 6 6 6 6 6 5 5 5 5 4 4 4 3 3 4 4 5 5 5 4 4 3 3 3 3 3 3 4 5
15 14 13 12 12 12 13 15 16 16 16 16 16 15 15 14 12 11 11 14 16 17 19 20 18 14 11 11 10 9 7 8 9 10 9 10 12 12 8 4 1 0 -1 -5 1 13 27 9 -0 -1 4 5 2 -3 -3 2 4 6 7 7 5 3 1 3 5 7 9 9 9 10 11 9 7 5 6 6 6 6 5 5 5 5 5 4 3 3 3 3 4 4 5 5 5 4 4 3 3 3 3 3 4 4 5
14 13 12 11 10 10 11 12 14 15 16 16 16 16 15 14 12 11 10 11 13 14 16 18 19 17 13 11 11 10 8 8 9 9 9 10 12 12 10 5 2 1 1 -3 -1 7 23 15 2 -6 -0 4 3 -1 -4 0 3 4 7 7 6 4 2 3 5 7 9 9 9 9 11 10 8 6 6 6 6 6 5 5 5 5 5 4 3 3 3 3 4 4 5 5 5 5 4 3 3 3 3 3 4 5 6
14 14 13 12 11 11 11 12 13 14 14 14 15 15 15 14 13 11 9 9 10 12 13 15 17 18 16 13 12 11 9 8 8 9 9 9 11 13 12 8 3 -1 -0 -1 -2 3 16 17 6 -5 -6 1 3 0 -4 -1 1 3 5 6 6 6 3 3 5 7 9 9 9 8 8 9 9 7 6 6 6 6 5 6 6 5 5 4 3 3 3 3 4 4 5 5 5 5 4 3 3 3 3 4 4 5 6
15 14 13 13 13 13 14 13 13 13 13 13 14 14 15 15 14 12 9 8 8 9 11 12 15 17 17 15 13 12 11 8 8 8 9 9 11 12 13 11 7 2 -1 -1 -2 1 10 16 10 0 -6 -1 2 2 -2 -1 0 1 3 5 6 5 2 4 6 8 10 10 10 8 7 7 8 7 6 6 6 6 5 5 5 4 3 3 3 3 3 3 4 4 5 5 5 5 4 3 3 3 3 4 5 6 7
15 14 13 13 14 15 16 16 16 15 13 13 13 13 14 15 14 13 11 9 8 8 9 10 12 14 16 16 15 14 13 10 9 8 9 9 10 12 13 12 11 8 2 -1 -3 -1 6 14 13 6 -2 0 3 4 1 0 -0 1 2 5 5 4 2 3 5 8 11 11 9 8 8 7 6 6 6 6 6 6 5 3 3 2 2 3 3 3 3 3 4 5 5 5 5 5 4 3 3 3 4 4 5 6 7
13 13 12 13 14 15 17 18 18 17 15 14 13 13 13 14 15 14 13 10 9 8 8 9 10 11 14 15 15 15 15 13 11 9 9 9 10 11 12 12 12 11 9 3 -2 -3 2 11 13 10 3 3 4 5 4 1 0 0 1 2 4 4 3 3 5 7 11 10 8 7 9 7 5 5 5 6 6 6 5 4 3 3 2 3 3 3 3 3 4 5 5 5 5 4 3 3 3 3 4 5 5 6 8
11 10 11 12 14 15 17 18 19 19 17 15 14 13 13 14 15 15 14 13 11 9 8 8 9 10 11 13 14 15 15 15 13 11 9 9 10 10 11 11 12 13 14 8 2 -3 -1 8 12 12 8 5 5 6 6 2 0 0 2 2 2 3 3 3 5 7 10 10 7 6 8 8 7 5 5 5 6 6 6 5 4 4 3 3 3 3 3 3 4 5 5 5 5 4 3 3 3 3 4 5 6 7 8
9 9 10 13 15 17 17 18 19 20 19 17 15 14 13 14 15 15 15 14 13 12 10 9 9 9 9 11 12 13 15 16 15 14 11 10 10 10 10 10 11 13 16 12 6 -1 -3 4 11 13 10 5 4 5 7 2 0 1 4 3 3 3 4 4 5 7 8 9 7 5 7 9 8 7 5 5 6 6 6 5 5 5 4 4 4 3 3 4 4 5 5 5 4 4 3 3 3 4 4 5 6 7 8
7 8 11 14 17 19 20 19 19 19 20 19 17 15 14 14 14 15 15 15 15 14 13 12 10 9 9 9 10 11 13 15 16 16 14 12 11 10 10 10 11 13 16 15 9 3 -3 2 8 13 11 1 -2 -0 5 2 1 2 5 4 4 3 4 5 6 7 8 8 7 5 5 8 9 8 6 5 5 6 6 5 5 5 5 4 4 4 4 4 4 5 5 5 4 3 3 3 3 4 5 5 6 7 9
7 9 13 16 19 21 23 21 20 19 20 19 18 16 14 13 13 13 14 14 14 15 15 14 13 11 10 9 9 9 11 14 17 18 17 14 12 11 10 10 11 12 14 15 12 6 -0 1 6 10 11 -1 -8 -8 -0 1 2 3 6 5 4 4 4 5 6 7 8 7 6 5 5 6 8 8 7 5 5 5 6 5 5 5 5 4 4 4 4 4 4 5 5 5 4 4 3 3 3 4 5 6 7 8 9
8 11 15 18 21 23 24 23 22 20 19 19 19 17 15 14 13 12 12 13 13 13 15 15 15 14 12 10 9 8 9 12 15 18 19 17 14 12 11 10 11 12 13 14 13 9 4 2 4 7 10 -1 -8 -10 -5 -0 2 3 7 7 5 4 4 5 6 6 8 7 7 6 6 5 6 7 6 5 5 5 6 6 5 5 5 4 4 5 4 4 4 5 5 5 4 4 3 3 3 4 5 6 7 8 9
8 12 17 20 22 23 24 24 22 20 18 19 19 18 17 15 14 12 11 12 12 12 13 15 16 16 14 12 10 8 8 10 13 17 20 19 16 13 12 11 11 11 11 13 13 11 7 4 3 5 8 4 -2 -7 -6 -1 3 5 8 7 6 5 4 5 6 6 8 7 7 7 6 5 5 6 6 5 5 5 5 6 6 5 5 4 5 5 5 4 5 5 5 5 4 4 3 3 3 4 5 6 7 8 9
9 12 17 19 21 21 21 22 21 20 17 17 17 18 18 17 16 14 12 12 12 12 12 13 15 16 17 15 12 9 8 8 11 15 19 19 18 15 13 12 11 11 10 11 12 12 10 7 4 4 7 7 3 -2 -5 1 6 8 7 6 6 5 4 5 6 6 7 7 8 8 6 5 5 6 7 6 5 4 5 6 6 6 5 5 4 5 5 5 5 5 5 5 4 3 3 3 3 4 5 6 7 8 9
8 11 15 17 18 17 17 18 18 18 17 15 15 15 16 17 17 16 15 14 13 12 12 13 15 17 18 17 14 11 9 8 9 13 17 19 18 16 15 14 12 11 10 10 10 10 9 7 5 6 10 10 7 4 2 8 10 9 4 4 3 2 3 5 6 6 7 7 8 8 5 4 4 6 7 7 6 5 4 5 6 6 5 5 5 5 5 5 5 5 5 5 4 3 3 3 3 4 5 6 7 8 9
7 8 11 13 14 14 14 14 15 16 16 16 15 14 13 13 15 16 17 16 15 14 13 14 15 17 18 18 16 13 10 8 9 11 15 17 18 17 16 14 13 11 10 10 9 8 8 6 5 6 12 15 14 14 18 24 19 10 3 2 1 1 4 5 6 6 7 7 7 6 4 3 4 5 7 7 6 5 4 5 5 6 6 5 5 5 5 5 5 5 5 5 4 3 3 3 3 4 5 7 7 8 9
5 5 6 8 10 11 11 11 12 13 15 16 16 15 14 12 12 13 15 17 17 17 16 16 16 18 19 19 17 14 11 9 9 10 14 16 17 17 16 15 13 11 10 10 8 7 7 5 5 6 9 15 20 26 32 33 25 14 7 4 2 2 4 6 6 6 7 8 7 5 4 4 5 6 7 7 7 6 4 4 5 6 6 5 5 5 5 5 5 5 5 5 4 3 3 3 3 4 5 7 7 8 9
5 3 2 3 4 6 7 8 9 10 12 14 16 17 16 14 12 12 12 14 16 18 18 17 17 18 20 20 18 15 12 9 9 10 13 15 16 16 15 15 13 12 10 11 9 7 5 4 5 6 5 6 13 18 15 7 6 10 12 8 5 3 3 6 7 6 7 7 7 7 7 7 7 8 8 8 7 6 5 5 5 6 6 6 6 5 5 5 5 6 6 5 4 3 3 3 3 4 5 7 8 8 9
6 4 1 0 0 2 4 7 8 10 10 12 15 17 18 17 15 14 13 13 14 16 17 17 18 18 20 21 19 16 13 10 9 10 13 15 15 15 15 14 13 12 11 12 10 7 5 4 6 6 4 -3 -1 2 -7 -34 -34 -18 2 7 7 4 3 6 6 6 7 8 9 8 9 8 8 8 8 8 8 7 6 5 5 6 6 6 6 5 5 5 6 6 6 5 4 3 3 3 3 4 5 7 8 9 9
7 6 4 2 2 3 8 12 15 16 15 15 15 15 16 17 17 16 15 15 14 14 15 16 17 18 19 21 20 18 14 10 9 10 13 14 15 14 14 14 14 13 12 12 10 7 4 4 5 7 7 -0 -1 1 2 -26 -38 -36 -18 -3 4 5 4 6 6 6 8 9 8 7 7 7 6 6 7 8 8 8 7 6 6 6 7 7 6 5 5 5 6 6 6 5 4 3 3 3 3 4 5 7 8 9 9
9 8 7 6 6 10 17 22 24 24 24 22 20 18 17 16 16 17 17 17 16 14 14 15 15 17 18 21 20 18 15 10 9 10 13 14 15 15 14 14 14 14 13 12 11 8 4 3 5 6 8 8 9 12 16 12 2 -8 -15 -7 1 7 7 7 6 5 7 8 7 5 5 6 5 5 6 7 8 8 8 7 7 7 8 7 6 5 5 5 6 6 5 5 4 3 3 3 3 4 6 7 8 9 9
10 10 9 7 10 16 25 27 27 27 28 29 28 26 23 19 16 15 17 18 17 16 14 14 15 16 17 20 20 19 15 11 9 10 13 14 15 15 14 14 14 14 14 12 11 9 5 3 4 6 7 10 14 19 23 26 24 18 6 3 5 7 6 5 5 5 6 7 6 4 4 4 4 4 5 6 7 9 10 9 8 8 8 7 6 5 5 5 6 6 5 4 4 3 3 3 4 5 6 7 8 9 9
10 10 7 4 8 16 26 25 23 22 25 31 34 35 32 25 19 15 16 18 18 18 16 16 16 16 17 19 19 19 16 12 10 10 13 14 15 15 14 15 15 15 14 12 10 9 8 3 2 3 5 8 12 16 20 22 23 22 18 15 14 11 6 4 4 5 6 6 5 5 4 4 4 5 5 6 8 11 11 10 9 9 9 8 6 5 5 5 6 6 5 4 3 3 3 3 4 5 6 7 8 9 9
10 9 4 1 4 13 24 22 19 18 22 32 38 41 40 31 23 17 16 18 19 19 18 18 18 17 17 18 18 18 16 13 11 11 13 14 14 15 15 16 16 16 15 12 10 8 8 5 4 3 4 5 6 7 7 10 14 18 22 23 21 16 9 5 4 4 5 5 5 4 4 5 5 5 5 7 10 13 13 11 10 10 10 8 7 5 5 5 6 6 5 4 3 3 2 3 4 5 6 7 8 9 9
9 8 3 -1 2 9 22 24 21 19 23 35 43 46 45 35 25 19 19 21 22 21 19 19 19 20 19 18 17 17 16 13 12 12 14 14 14 14 15 16 17 16 15 12 10 7 2 6 8 7 4 4 3 1 -0 2 7 14 23 25 22 15 11 6 4 4 5 4 4 4 5 7 7 7 5 8 12 14 12 10 10 10 11 9 7 5 5 5 6 6 5 4 3 3 3 3 4 5 6 7 8 9 9
9 7 3 -1 0 7 22 28 25 22 25 37 44 47 44 32 24 20 22 25 25 23 20 19 20 21 21 18 17 16 15 14 13 13 14 14 14 14 15 16 17 16 14 13 9 5 1 8 11 10 5 3 1 -0 -1 1 6 12 21 23 17 9 8 5 4 4 5 4 4 5 6 9 10 9 6 9 12 13 9 8 8 10 11 9 7 5 5 5 6 5 5 4 3 3 3 3 4 5 6 7 8 9 9
8 6 3 0 1 7 23 32 30 24 24 34 40 40 33 22 15 13 18 23 26 26 22 20 20 21 21 19 16 15 15 14 14 15 15 15 14 14 15 16 17 16 13 12 6 1 3 10 11 9 5 3 1 0 -0 3 8 13 19 20 14 7 5 4 4 4 7 5 4 5 8 11 10 7 6 9 9 7 3 4 7 9 11 10 7 5 5 5 5 5 5 4 3 2 3 3 4 5 6 7 8 9 9
6 5 4 2 2 8 24 37 34 25 21 27 30 28 18 8 3 2 7 17 23 26 24 21 20 21 22 19 16 14 15 15 16 16 16 15 14 14 14 15 16 17 14 12 4 -2 4 13 17 15 7 3 2 2 3 6 11 15 19 21 16 9 4 3 4 6 10 6 2 2 9 12 10 7 7 8 5 1 -2 2 5 9 11 10 8 5 5 5 5 5 5 4 3 2 2 3 4 5 6 7 8 9 9
6 5 5 4 3 8 25 42 39 26 16 19 20 18 11 4 0 1 7 15 22 27 27 23 21 21 22 19 16 14 15 16 17 17 16 15 14 13 14 14 15 17 17 15 5 -2 3 15 19 16 11 5 3 3 5 9 13 16 19 21 19 12 3 3 5 8 13 6 -1 -2 8 13 10 7 8 8 4 0 -1 3 5 8 11 10 8 6 5 5 5 5 4 3 3 2 2 3 4 5 6 7 8 9 9
7 7 7 5 4 10 29 45 41 27 13 12 14 15 13 10 8 7 11 17 23 27 30 25 22 22 21 19 17 16 16 17 18 18 16 15 14 13 14 13 14 17 19 16 5 -3 3 17 18 12 8 5 4 5 7 10 14 16 16 19 18 12 3 3 5 10 14 6 -3 -5 7 13 11 7 7 7 6 4 5 6 7 8 11 11 8 6 5 5 6 5 4 3 2 2 2 3 4 5 5 7 8 9 9
8 8 8 4 5 14 35 46 42 29 13 9 10 12 14 14 13 13 12 15 21 27 32 26 23 21 20 18 17 17 18 18 19 19 17 15 14 14 13 13 14 16 19 15 4 -3 4 14 15 10 7 5 5 5 6 9 12 14 13 15 15 10 3 3 6 11 16 8 -1 -5 7 14 11 6 5 7 8 9 10 9 8 9 11 11 9 7 6 6 6 5 4 3 2 2 2 3 4 4 5 6 8 9 9
9 10 7 2 7 20 40 45 41 32 20 13 9 9 10 11 12 12 12 12 16 23 32 28 25 22 19 18 18 19 20 19 19 19 17 15 14 13 13 13 15 16 17 11 2 -2 6 12 11 8 6 5 5 5 6 8 10 11 10 11 11 9 4 4 6 12 18 13 3 -2 7 14 12 7 5 7 10 11 12 10 10 10 11 11 9 7 6 6 6 6 4 3 2 2 2 3 3 4 5 6 8 8 9
10 11 7 1 10 26 42 44 42 38 34 29 22 14 8 5 4 3 3 4 7 14 27 28 27 25 21 19 19 20 20 20 20 19 18 15 14 13 14 15 16 16 15 7 1 -0 5 12 13 11 9 7 6 6 7 9 9 9 8 9 10 9 5 4 7 12 20 16 7 -0 5 12 11 7 5 8 10 10 11 10 10 10 11 11 9 8 6 6 6 6 4 3 2 2 2 2 3 4 5 6 7 8 9
10 11 6 1 12 29 42 41 40 40 43 46 43 36 23 13 7 5 6 7 8 12 22 27 28 27 23 20 19 20 20 20 20 19 17 15 13 13 14 16 17 16 12 4 2 2 3 12 14 13 10 8 7 8 11 11 9 7 7 9 10 10 6 5 9 15 21 18 9 1 3 9 9 7 6 8 9 9 8 7 8 9 10 10 10 8 7 6 6 6 5 3 2 2 2 2 3 4 5 6 7 8 9
10 10 6 -0 12 29 38 35 31 30 33 39 44 44 37 27 22 21 24 23 20 17 20 27 30 29 22 20 19 19 19 19 19 19 17 14 13 13 14 16 18 16 11 4 4 5 2 11 15 15 11 10 10 12 15 15 10 6 6 9 11 11 8 12 17 21 21 17 9 2 1 5 7 7 7 8 8 7 5 4 4 6 8 9 9 8 7 7 6 6 5 3 3 2 2 2 3 4 4 5 7 7 8
10 11 6 -2 10 27 36 29 21 16 16 20 25 29 31 27 27 29 32 30 24 20 20 28 31 29 21 18 18 18 18 18 19 18 16 13 12 13 15 16 17 16 11 5 6 6 -1 8 13 15 13 11 11 13 19 20 15 8 6 8 10 12 14 25 29 26 19 16 9 2 -1 3 6 7 6 6 6 4 3 3 2 3 5 7 9 9 8 7 7 6 5 4 3 2 2 2 2 3 4 5 6 7 8
10 11 6 -2 8 26 38 28 18 11 7 9 13 17 18 19 23 29 32 29 25 21 23 30 31 27 20 18 17 17 17 18 18 17 14 11 12 14 16 16 16 15 12 8 7 5 -2 4 9 12 8 6 8 13 23 25 19 11 6 8 9 12 20 31 30 24 17 17 12 4 -2 3 4 3 2 4 5 4 4 3 3 3 4 6 7 8 8 8 7 6 5 4 3 2 2 2 2 3 3 5 6 7 7
9 11 8 -2 6 25 43 28 19 12 7 11 18 23 20 17 20 27 33 32 28 25 26 32 30 25 19 17 17 17 16 17 17 16 11 10 13 16 16 16 14 12 13 13 10 5 -0 -0 4 5 -0 -2 3 13 25 22 16 10 6 6 7 9 16 15 10 6 6 10 10 5 -2 -1 -2 -3 -3 0 3 4 5 5 5 5 5 5 6 7 8 8 7 7 6 4 3 2 2 2 2 2 3 4 5 6 7
9 10 10 0 5 22 48 30 19 14 14 18 26 34 38 21 18 25 34 38 36 33 31 30 27 22 18 17 17 17 16 15 15 13 9 10 15 19 17 15 11 10 14 17 14 8 3 -1 1 1 -4 -5 0 9 16 8 4 4 7 7 8 8 4 -7 -10 -9 -5 -0 3 2 -2 -2 -2 -1 -1 -1 1 3 5 6 7 8 7 7 7 7 7 7 7 7 6 5 3 2 2 2 2 2 3 4 5 6 6
9 10 12 3 3 17 50 33 19 13 20 22 25 31 41 28 22 23 31 38 40 37 31 27 22 18 15 15 16 16 14 13 12 11 9 13 20 23 17 10 10 13 19 18 16 13 7 2 3 3 -0 -1 2 5 2 -10 -10 -2 12 14 15 12 3 -12 -13 -5 5 5 3 -0 -6 -4 0 5 7 5 4 3 5 6 8 9 10 8 7 7 7 7 7 7 6 5 4 3 2 2 2 2 2 3 4 5 6
8 9 12 7 3 12 45 37 21 10 19 22 24 27 34 36 27 18 21 29 33 33 25 23 20 16 14 14 14 14 12 10 10 10 10 17 23 24 17 -1 3 16 25 22 19 15 10 6 6 7 6 7 7 4 -4 -15 -13 -1 18 22 21 17 9 -1 -2 5 18 17 12 4 -7 -7 -1 6 12 12 11 8 6 6 8 10 11 10 9 7 7 7 7 7 7 6 4 3 2 2 2 2 2 3 3 4 5
8 8 10 10 5 8 32 41 26 10 17 20 20 22 28 30 29 21 6 13 22 28 22 21 19 16 13 13 13 12 9 5 5 8 12 22 24 21 13 -12 -6 12 23 23 21 18 12 9 9 10 11 13 12 7 -3 -10 -6 6 22 27 24 17 12 8 6 9 17 21 20 13 -2 -7 -3 5 11 15 16 13 8 7 8 10 12 11 10 8 7 6 6 7 7 6 5 4 2 2 2 2 2 2 3 4 5
9 8 9 12 7 5 16 42 33 15 13 15 13 12 18 21 28 33 26 15 19 26 26 18 16 16 13 12 11 10 8 2 2 8 21 28 24 15 3 -12 -6 6 14 19 20 19 18 12 11 12 14 16 14 8 0 -2 3 13 25 28 21 12 7 6 6 7 7 15 22 21 6 -5 -5 2 9 17 20 17 10 7 8 10 11 11 10 9 7 7 6 6 7 6 5 4 3 2 2 2 2 2 2 3 4
9 8 8 11 9 5 5 35 37 24 7 11 10 9 13 16 20 25 35 33 30 28 32 22 17 14 11 11 11 10 8 4 6 14 29 29 21 9 -3 -9 -7 -1 5 13 16 18 21 17 16 17 17 16 13 8 3 3 9 17 26 25 16 6 -2 -1 4 8 6 9 18 24 15 -2 -5 2 16 28 24 14 11 8 7 8 8 8 9 9 9 8 7 7 7 6 5 4 3 2 2 2 2 2 2 3 3
9 8 7 10 10 8 2 20 34 33 6 10 9 8 12 17 18 16 13 26 30 30 29 27 22 16 13 11 10 10 9 10 14 22 29 25 18 10 1 -11 -13 -6 9 14 17 18 19 18 19 21 20 16 11 7 4 6 11 18 25 20 11 2 -4 -6 -1 5 11 7 12 18 19 3 -3 2 21 24 15 5 6 6 5 4 2 3 5 8 10 9 8 8 7 6 5 5 4 3 2 2 2 2 2 2 3
9 8 7 9 10 10 4 7 23 32 11 15 11 5 7 10 14 16 15 12 16 22 23 23 21 17 14 14 12 11 12 15 20 25 25 21 16 12 6 -16 -17 -4 13 12 13 17 23 18 18 20 23 18 12 8 6 8 13 18 22 14 7 1 -1 -4 -5 -1 10 6 6 10 15 5 -0 -1 5 -10 -15 -12 -2 -1 -0 -1 -3 -2 1 5 9 10 10 9 8 7 6 5 4 3 2 2 2 2 2 2 2
9 9 7 7 9 9 6 4 12 20 16 27 20 7 3 4 7 10 15 17 15 12 14 17 16 14 12 14 14 14 15 18 23 25 23 18 12 9 11 -13 -14 -2 13 4 4 10 22 19 17 16 18 19 15 9 4 7 12 17 18 9 5 3 3 1 -2 -3 3 5 5 6 10 5 1 -0 -0 -18 -21 -15 -6 -7 -5 -4 -5 -5 -2 2 7 9 10 10 9 8 6 6 5 4 3 2 2 2 2 2 2
9 9 8 7 7 8 8 5 10 15 15 30 29 19 7 5 5 6 9 18 20 16 8 9 11 13 13 14 16 16 16 19 22 25 24 18 11 6 6 -9 -11 -2 15 4 -1 3 20 25 24 19 13 16 16 12 4 7 12 16 15 9 6 5 6 4 2 -1 -1 3 5 6 9 5 2 -0 2 -1 -4 -6 -5 -6 -5 -3 -2 -2 -1 2 6 8 9 10 9 8 7 6 5 4 4 3 2 2 2 2 2
9 9 8 7 7 7 8 6 10 14 12 20 28 30 16 11 10 11 11 13 18 20 16 9 8 9 12 14 16 18 17 19 22 24 23 19 15 10 5 -7 -10 -5 10 7 1 -1 7 26 32 26 10 14 19 20 12 12 15 18 14 10 9 8 8 6 3 1 -1 2 4 5 7 6 3 -0 1 6 8 6 4 1 2 3 4 4 4 5 7 8 8 9 9 9 8 7 6 5 4 4 3 3 2 2 2
9 8 8 7 7 7 8 6 8 10 12 7 17 28 29 20 16 15 13 12 13 15 19 15 12 11 14 16 17 18 15 18 20 20 20 19 18 16 11 5 1 -2 -4 -4 -7 -10 -9 18 32 29 2 7 17 25 22 18 17 17 15 11 9 7 7 5 3 2 0 2 4 5 5 6 4 1 -1 4 9 12 12 11 10 10 10 10 9 8 8 8 8 8 8 8 8 8 7 6 5 5 4 3 3 2 2
9 8 9 8 7 6 7 6 6 8 15 5 8 18 32 24 19 17 16 14 12 13 17 17 16 14 14 16 17 16 11 11 9 10 13 16 17 17 19 19 18 13 2 -5 -10 -14 -17 10 30 33 11 8 13 21 26 21 15 10 7 6 5 4 3 2 3 3 3 2 3 5 5 5 5 4 1 2 4 8 11 14 15 15 14 13 11 9 7 7 7 6 6 7 8 8 8 7 6 5 4 3 3 2 2
9 9 9 8 7 6 6 6 5 7 14 12 8 9 23 23 19 15 17 16 16 17 18 20 19 17 14 16 16 13 7 1 0 4 11 12 12 13 19 24 25 23 15 5 -2 -9 -18 6 26 32 15 6 4 6 12 15 13 9 5 1 1 2 1 1 2 4 5 4 4 4 4 4 4 5 5 3 3 5 8 13 16 17 16 14 12 9 7 6 5 4 4 6 7 8 8 8 7 6 5 4 4 3 2
9 9 9 9 8 7 6 6 5 6 9 16 13 9 11 19 18 14 13 13 15 17 20 21 22 20 15 18 16 12 7 -1 -3 2 13 14 10 7 12 21 24 22 18 11 5 -2 -11 8 26 34 23 11 3 0 3 6 7 6 3 -0 -0 2 3 3 4 5 8 6 5 5 4 3 3 3 5 6 7 7 8 13 16 18 17 14 12 9 7 5 3 2 3 4 5 7 8 8 8 8 7 6 5 4 3
Height
3125 3125 3124 3124 3123 3122 3122 3122 3121 3120 3120 3120 3120 3119 3119 3119 3120 3121 3122 3124 3125 3126 3127 3128 3130 3132 3133 3134 3136 3137 3138 3140 3142 3143 3145 3146 3147 3147 3148 3149 3150 3149 3147 3146 3152 3160 3162 3159 3159 3160 3161 3162 3163 3164 3164 3165 3165 3166 3167 3169 3170 3171 3172 3173 3174 3174 3175 3176 3177 3177 3178 3179 3180 3181 3182 3183 3183 3184 3185 3185 3186 3187 3188 3189 3190 3191 3192 3192 3193 3193 3194 3195 3195 3196 3197 3197 3198 3198 3198 3199 3199 3200 3200
3123 3122 3121 3120 3119 3119 3118 3118 3117 3117 3116 3116 3116 3116 3116 3116 3116 3117 3118 3120 3122 3123 3123 3125 3127 3128 3130 3131 3132 3134 3136 3137 3138 3140 3142 3143 3144 3145 3146 3146 3147 3148 3146 3144 3148 3154 3158 3159 3158 3158 3159 3160 3161 3162 3163 3163 3164 3165 3167 3168 3169 3170 3171 3172 3173 3173 3174 3175 3176 3177 3177 3179 3180 3181 3181 3182 3183 3183 3184 3185 3186 3187 3187 3188 3189 3190 3191 3192 3192 3193 3194 3194 3195 3196 3196 3197 3197 3198 3198 3199 3199 3199 3200
3120 3119 3118 3117 3116 3115 3114 3114 3113 3113 3112 3112 3112 3112 3112 3112 3112 3113 3114 3116 3117 3119 3120 3121 3123 3125 3127 3128 3129 3131 3132 3134 3135 3137 3140 3141 3142 3143 3144 3144 3145 3145 3145 3143 3146 3150 3154 3156 3156 3156 3157 3158 3159 3160 3161 3162 3162 3163 3165 3167 3168 3169 3170 3171 3172 3173 3174 3175 3175 3176 3177 3178 3179 3180 3181 3181 3182 3182 3183 3184 3185 3186 3187 3188 3189 3190 3190 3191 3192 3193 3194 3194 3195 3195 3196 3197 3197 3198 3198 3198 3199 3199 3199
3117 3116 3115 3113 3112 3112 3111 3110 3110 3109 3109 3109 3109 3109 3109 3109 3109 3110 3111 3112 3113 3115 3117 3118 3119 3121 3123 3125 3126 3127 3129 3131 3132 3135 3137 3138 3139 3140 3141 3142 3143 3143 3142 3143 3145 3148 3150 3153 3154 3155 3154 3156 3158 3159 3160 3160 3160 3161 3163 3165 3166 3168 3169 3170 3171 3172 3173 3175 3175 3175 3176 3177 3178 3179 3180 3181 3181 3182 3183 3183 3184 3185 3186 3187 3188 3189 3190 3191 3192 3193 3194 3194 3194 3195 3196 3196 3197 3197 3198 3198 3198 3199 3199
3114 3113 3112 3110 3109 3108 3107 3107 3106 3106 3105 3105 3106 3106 3106 3106 3106 3106 3107 3108 3110 3112 3113 3114 3116 3117 3120 3121 3123 3124 3126 3128 3130 3131 3133 3135 3137 3137 3139 3140 3141 3141 3141 3142 3144 3146 3147 3149 3151 3152 3153 3154 3156 3157 3158 3158 3158 3159 3161 3163 3165 3167 3168 3169 3170 3171 3173 3173 3173 3174 3176 3177 3177 3178 3179 3180 3181 3182 3182 3183 3184 3185 3186 3187 3187 3188 3189 3190 3191 3192 3193 3193 3194 3195 3195 3196 3197 3197 3197 3198 3198 3199 3199
3111 3110 3108 3107 3107 3106 3105 3104 3103 3103 3102 3102 3102 3102 3102 3102 3103 3103 3104 3105 3107 3108 3110 3111 3112 3114 3116 3118 3119 3121 3123 3125 3127 3128 3130 3133 3134 3135 3137 3138 3139 3139 3140 3142 3144 3146 3146 3147 3149 3150 3152 3153 3155 3156 3157 3157 3157 3157 3159 3161 3163 3165 3167 3167 3169 3170 3173 3173 3173 3173 3175 3176 3177 3178 3179 3179 3180 3181 3182 3182 3183 3184 3185 3186 3187 3188 3189 3190 3191 3192 3192 3193 3194 3195 3195 3196 3196 3197 3197 3198 3198 3198 3199
3108 3107 3106 3104 3103 3102 3102 3101 3100 3100 3099 3099 3099 3099 3099 3100 3100 3101 3101 3102 3103 3105 3106 3108 3109 3111 3112 3114 3116 3118 3119 3121 3123 3125 3127 3129 3132 3133 3134 3136 3137 3138 3139 3140 3144 3147 3146 3147 3149 3150 3151 3152 3153 3155 3156 3156 3156 3156 3157 3160 3162 3164 3165 3167 3167 3169 3171 3171 3172 3173 3173 3174 3176 3177 3178 3178 3179 3180 3181 3182 3183 3184 3185 3186 3186 3187 3188 3189 3190 3191 3192 3192 3193 3194 3195 3196 3196 3197 3197 3197 3198 3198 3198
3105 3104 3102 3102 3101 3100 3099 3098 3097 3097 3097 3096 3096 3096 3096 3097 3097 3098 3098 3099 3100 3102 3103 3105 3106 3107 3109 3111 3113 3114 3116 3118 3120 3122 3124 3126 3128 3131 3131 3133 3135 3136 3137 3139 3142 3145 3147 3147 3148 3150 3150 3151 3152 3153 3154 3155 3155 3155 3156 3158 3161 3162 3164 3165 3167 3167 3169 3170 3171 3172 3173 3174 3175 3176 3177 3178 3179 3180 3181 3182 3182 3183 3184 3185 3186 3187 3188 3189 3190 3191 3191 3192 3193 3194 3194 3195 3196 3196 3197 3197 3197 3198 3198
3102 3101 3100 3099 3098 3097 3096 3095 3094 3094 3093 3092 3092 3093 3093 3093 3094 3095 3095 3096 3097 3098 3100 3102 3103 3104 3106 3107 3109 3111 3113 3115 3117 3119 3121 3122 3125 3127 3129 3131 3132 3134 3136 3138 3140 3143 3146 3147 3148 3149 3149 3150 3151 3152 3153 3153 3153 3154 3154 3156 3159 3161 3163 3164 3165 3167 3167 3169 3171 3172 3172 3173 3174 3175 3176 3177 3178 3179 3180 3181 3182 3183 3184 3184 3185 3186 3187 3188 3189 3190 3191 3192 3192 3193 3194 3194 3195 3196 3196 3197 3197 3197 3198
3100 3098 3097 3096 3095 3094 3093 3092 3092 3091 3090 3090 3089 3089 3090 3090 3091 3092 3093 3093 3094 3096 3097 3099 3100 3102 3103 3104 3106 3108 3110 3112 3113 3116 3117 3120 3122 3124 3127 3129 3131 3132 3134 3136 3138 3141 3144 3146 3147 3148 3149 3149 3150 3151 3152 3152 3152 3153 3153 3155 3157 3160 3162 3163 3164 3166 3167 3168 3169 3171 3171 3172 3173 3174 3175 3177 3177 3178 3179 3180 3181 3182 3183 3184 3185 3186 3187 3188 3189 3189 3190 3191 3192 3192 3193 3194 3194 3195 3196 3196 3197 3197 3197
3097 3096 3095 3094 3092 3092 3091 3089 3089 3088 3087 3087 3086 3086 3087 3087 3088 3089 3090 3091 3092 3093 3095 3096 3097 3099 3100 3102 3103 3105 3107 3108 3110 3112 3114 3117 3118 3121 3124 3127 3129 3130 3132 3134 3137 3139 3142 3144 3145 3146 3147 3148 3149 3150 3151 3151 3152 3152 3152 3153 3156 3158 3160 3162 3163 3164 3166 3167 3168 3170 3171 3171 3172 3173 3175 3176 3177 3177 3178 3179 3181 3182 3183 3183 3184 3185 3186 3187 3188 3189 3190 3191 3191 3192 3193 3193 3194 3194 3195 3196 3196 3197 3197
3096 3094 3092 3092 3090 3089 3088 3087 3086 3085 3085 3084 3083 3083 3083 3084 3085 3086 3087 3088 3089 3090 3092 3093 3094 3096 3097 3099 3100 3102 3103 3105 3107 3109 3111 3113 3115 3117 3120 3123 3126 3128 3131 3133 3135 3137 3139 3141 3143 3144 3146 3147 3148 3148 3149 3150 3150 3151 3152 3152 3154 3157 3159 3161 3162 3163 3165 3166 3167 3169 3171 3170 3171 3172 3173 3175 3176 3177 3177 3179 3180 3182 3182 3183 3184 3184 3185 3187 3187 3188 3189 3190 3191 3192 3192 3193 3193 3194 3194 3195 3196 3196 3197
3093 3092 3091 3089 3088 3087 3085 3084 3083 3083 3082 3082 3081 3081 3081 3081 3082 3083 3084 3085 3086 3087 3089 3090 3092 3093 3095 3096 3097 3098 3100 3102 3104 3106 3108 3110 3112 3115 3117 3119 3122 3126 3128 3132 3134 3135 3136 3138 3140 3142 3144 3145 3146 3147 3147 3148 3149 3150 3150 3151 3153 3156 3157 3159 3161 3162 3164 3165 3166 3168 3169 3169 3170 3171 3172 3174 3175 3176 3177 3179 3180 3181 3182 3182 3183 3184 3185 3186 3187 3188 3189 3189 3190 3191 3192 3192 3193 3193 3194 3194 3195 3196 3196
3092 3090 3089 3087 3086 3084 3083 3082 3081 3080 3080 3079 3079 3078 3078 3078 3079 3080 3081 3082 3084 3085 3086 3087 3089 3091 3092 3093 3094 3096 3097 3099 3101 3103 3105 3107 3110 3112 3114 3117 3119 3122 3126 3129 3132 3133 3134 3135 3137 3139 3142 3143 3144 3145 3146 3147 3147 3148 3149 3149 3151 3154 3156 3158 3159 3161 3162 3164 3165 3166 3167 3168 3168 3170 3172 3173 3174 3176 3177 3178 3179 3180 3181 3182 3183 3184 3185 3185 3186 3187 3188 3189 3190 3190 3191 3192 3192 3193 3193 3194 3194 3195 3196
3090 3088 3087 3085 3084 3082 3081 3079 3078 3077 3077 3077 3077 3076 3076 3076 3077 3077 3078 3079 3081 3082 3083 3085 3086 3087 3089 3090 3091 3092 3094 3096 3098 3100 3102 3105 3107 3109 3112 3114 3117 3120 3122 3125 3128 3131 3132 3133 3134 3137 3139 3141 3142 3143 3144 3145 3146 3147 3147 3148 3150 3152 3155 3156 3158 3160 3161 3163 3164 3164 3166 3167 3167 3169 3171 3172 3173 3175 3176 3177 3178 3179 3180 3181 3182 3183 3184 3185 3186 3187 3187 3188 3189 3190 3190 3191 3192 3192 3193 3193 3194 3194 3195
3087 3086 3085 3083 3082 3080 3078 3077 3076 3075 3074 3074 3074 3074 3073 3074 3074 3074 3075 3076 3077 3079 3080 3082 3083 3085 3086 3087 3088 3089 3091 3092 3094 3097 3099 3102 3104 3107 3109 3112 3115 3117 3120 3122 3125 3128 3130 3131 3132 3134 3136 3139 3140 3141 3142 3143 3144 3145 3145 3147 3149 3151 3153 3155 3157 3158 3160 3162 3163 3163 3164 3166 3167 3168 3170 3171 3172 3173 3175 3176 3177 3178 3179 3180 3181 3182 3183 3184 3185 3186 3187 3187 3188 3189 3190 3190 3191 3192 3192 3193 3193 3194 3194
3085 3084 3082 3081 3079 3077 3076 3075 3073 3072 3072 3071 3071 3071 3071 3071 3071 3072 3072 3073 3074 3076 3077 3078 3080 3082 3083 3084 3085 3086 3087 3089 3091 3094 3096 3099 3102 3104 3107 3110 3112 3115 3117 3119 3122 3125 3127 3129 3131 3132 3133 3136 3138 3139 3141 3142 3142 3143 3143 3145 3147 3150 3152 3154 3156 3157 3159 3161 3162 3162 3163 3164 3166 3167 3168 3169 3171 3172 3174 3175 3176 3177 3178 3180 3180 3181 3182 3183 3184 3185 3186 3187 3187 3188 3189 3190 3190 3191 3192 3192 3193 3193 3194
3083 3081 3080 3078 3077 3075 3074 3072 3071 3070 3069 3069 3068 3068 3069 3069 3069 3069 3070 3070 3071 3072 3073 3075 3077 3078 3080 3081 3082 3083 3084 3086 3088 3091 3094 3097 3099 3102 3104 3107 3110 3112 3114 3116 3119 3122 3124 3127 3128 3130 3131 3133 3135 3137 3138 3139 3140 3141 3141 3143 3146 3148 3151 3152 3154 3156 3158 3160 3161 3162 3162 3163 3164 3166 3167 3168 3170 3171 3172 3174 3175 3176 3177 3179 3180 3181 3182 3182 3183 3184 3185 3186 3187 3188 3189 3189 3190 3190 3191 3192 3192 3193 3193
3080 3079 3077 3076 3074 3072 3071 3070 3069 3068 3067 3067 3066 3066 3066 3066 3067 3067 3067 3067 3068 3069 3070 3072 3073 3075 3077 3078 3079 3080 3082 3084 3086 3088 3091 3094 3097 3099 3102 3105 3107 3109 3111 3114 3116 3119 3122 3124 3126 3127 3129 3131 3132 3134 3136 3137 3138 3139 3140 3142 3144 3147 3149 3151 3152 3154 3156 3158 3160 3161 3161 3162 3163 3164 3166 3167 3169 3170 3172 3173 3174 3175 3177 3177 3179 3180 3181 3182 3183 3184 3185 3185 3186 3187 3188 3188 3189 3190 3190 3191 3192 3192 3193
3078 3077 3075 3073 3072 3070 3069 3067 3067 3066 3065 3064 3064 3063 3064 3064 3064 3064 3065 3065 3066 3066 3067 3068 3070 3072 3073 3075 3076 3077 3079 3081 3083 3086 3089 3092 3094 3097 3099 3102 3104 3107 3108 3111 3114 3117 3119 3121 3123 3125 3126 3128 3129 3131 3132 3134 3135 3137 3138 3140 3142 3145 3147 3149 3151 3153 3155 3156 3158 3159 3159 3160 3162 3163 3165 3166 3168 3169 3171 3172 3173 3174 3176 3177 3178 3179 3180 3181 3182 3183 3184 3185 3185 3186 3187 3188 3188 3189 3190 3190 3191 3192 3192
3076 3074 3072 3071 3069 3067 3066 3065 3064 3064 3063 3062 3062 3061 3061 3062 3062 3062 3062 3062 3063 3064 3064 3065 3067 3068 3070 3072 3073 3075 3077 3078 3081 3083 3086 3089 3092 3094 3096 3099 3101 3103 3106 3108 3111 3114 3116 3118 3120 3122 3124 3125 3126 3127 3129 3131 3133 3135 3137 3139 3141 3143 3146 3147 3149 3152 3153 3155 3156 3157 3158 3159 3160 3162 3163 3165 3167 3168 3169 3171 3172 3173 3175 3176 3177 3178 3179 3180 3181 3182 3183 3184 3185 3185 3186 3187 3188 3188 3189 3190 3190 3191 3191
3074 3072 3070 3068 3067 3065 3064 3063 3062 3062 3061 3061 3060 3059 3059 3059 3059 3059 3060 3060 3060 3061 3062 3062 3063 3065 3067 3068 3070 3072 3074 3076 3078 3081 3084 3086 3089 3091 3093 3096 3098 3101 3103 3106 3109 3112 3114 3115 3117 3119 3120 3121 3123 3125 3127 3129 3131 3133 3135 3137 3139 3141 3143 3146 3148 3150 3152 3153 3155 3156 3157 3158 3159 3161 3162 3164 3165 3167 3168 3170 3171 3172 3174 3175 3176 3177 3178 3179 3180 3181 3182 3183 3184 3185 3186 3186 3187 3187 3188 3189 3189 3190 3191
3072 3070 3068 3066 3065 3063 3062 3061 3060 3060 3059 3058 3058 3057 3057 3057 3057 3057 3057 3057 3058 3058 3059 3060 3061 3062 3064 3065 3067 3069 3071 3073 3075 3078 3081 3083 3086 3088 3090 3092 3095 3098 3100 3103 3106 3109 3111 3113 3115 3117 3117 3119 3121 3123 3126 3128 3130 3132 3133 3135 3138 3140 3142 3144 3147 3148 3150 3152 3153 3155 3155 3157 3158 3159 3161 3162 3164 3166 3167 3168 3170 3171 3172 3174 3175 3176 3177 3178 3179 3180 3181 3182 3183 3184 3185 3185 3186 3187 3187 3188 3189 3189 3190
3070 3068 3066 3064 3063 3062 3060 3059 3058 3057 3057 3056 3055 3055 3055 3054 3054 3054 3054 3055 3055 3055 3056 3057 3058 3059 3061 3062 3064 3066 3068 3070 3072 3075 3078 3081 3083 3085 3087 3089 3092 3095 3097 3100 3103 3107 3109 3110 3112 3114 3116 3117 3119 3122 3124 3126 3128 3130 3131 3134 3136 3138 3140 3142 3145 3147 3149 3151 3152 3153 3154 3155 3157 3158 3160 3161 3162 3164 3166 3167 3169 3170 3172 3173 3174 3175 3176 3177 3178 3179 3180 3181 3182 3183 3184 3185 3185 3186 3187 3187 3188 3189 3189
3068 3066 3064 3063 3061 3060 3058 3057 3056 3055 3054 3053 3053 3052 3052 3052 3052 3052 3052 3052 3052 3052 3053 3054 3055 3056 3057 3059 3061 3062 3065 3067 3069 3072 3075 3078 3080 3082 3084 3086 3089 3092 3094 3097 3100 3103 3105 3107 3109 3111 3114 3116 3118 3120 3123 3125 3127 3128 3130 3132 3135 3137 3139 3141 3143 3145 3147 3149 3151 3152 3154 3154 3155 3157 3158 3160 3161 3162 3164 3166 3167 3169 3170 3172 3173 3174 3175 3176 3177 3178 3180 3181 3181 3182 3183 3184 3185 3185 3186 3187 3187 3188 3188
3066 3064 3062 3061 3059 3057 3056 3055 3054 3052 3052 3051 3050 3049 3048 3048 3048 3048 3049 3049 3049 3049 3050 3051 3052 3053 3054 3056 3058 3060 3062 3064 3067 3069 3072 3075 3077 3079 3081 3083 3086 3089 3092 3095 3097 3100 3102 3104 3107 3109 3112 3114 3117 3119 3121 3122 3125 3127 3129 3132 3134 3135 3136 3138 3141 3143 3145 3148 3149 3151 3153 3153 3154 3155 3157 3158 3160 3161 3163 3165 3166 3167 3169 3171 3172 3173 3174 3176 3177 3177 3179 3180 3180 3181 3182 3183 3184 3184 3185 3186 3187 3187 3188
3063 3062 3060 3058 3056 3055 3053 3052 3051 3049 3048 3047 3046 3045 3045 3045 3045 3045 3046 3046 3046 3046 3047 3047 3049 3050 3051 3053 3055 3057 3058 3061 3063 3067 3069 3072 3073 3076 3078 3080 3082 3086 3089 3092 3095 3097 3099 3102 3104 3106 3109 3112 3115 3117 3117 3119 3122 3126 3129 3131 3133 3134 3135 3137 3139 3142 3144 3147 3148 3150 3152 3152 3152 3153 3155 3157 3158 3160 3162 3163 3165 3166 3168 3169 3171 3172 3173 3174 3175 3177 3177 3179 3180 3181 3181 3182 3183 3184 3184 3185 3186 3187 3187
3061 3059 3057 3055 3054 3052 3050 3048 3047 3046 3044 3043 3042 3042 3042 3041 3042 3042 3042 3042 3043 3043 3044 3044 3046 3047 3048 3050 3052 3053 3056 3058 3061 3064 3066 3068 3071 3072 3075 3077 3080 3083 3087 3090 3092 3094 3097 3100 3102 3104 3106 3109 3112 3114 3116 3118 3122 3125 3128 3130 3132 3133 3134 3136 3138 3140 3142 3145 3147 3148 3151 3151 3151 3152 3153 3155 3157 3158 3160 3162 3163 3165 3167 3168 3170 3171 3172 3173 3174 3175 3177 3178 3179 3180 3180 3181 3182 3183 3183 3184 3185 3186 3186
3059 3057 3055 3053 3051 3049 3047 3045 3043 3041 3040 3039 3038 3038 3038 3038 3038 3038 3039 3039 3040 3040 3041 3041 3042 3044 3045 3047 3049 3051 3053 3055 3058 3061 3063 3066 3068 3070 3072 3074 3077 3081 3084 3087 3090 3092 3094 3097 3100 3102 3104 3107 3109 3112 3115 3118 3121 3125 3127 3129 3131 3132 3133 3134 3136 3138 3140 3143 3145 3147 3149 3150 3150 3150 3152 3154 3156 3157 3159 3160 3162 3164 3165 3167 3169 3170 3171 3172 3173 3174 3176 3177 3178 3178 3179 3180 3181 3182 3182 3183 3184 3185 3186
3057 3055 3053 3051 3049 3046 3044 3041 3039 3037 3035 3034 3033 3033 3033 3034 3034 3034 3035 3036 3036 3037 3037 3038 3039 3041 3042 3044 3046 3048 3050 3052 3055 3058 3061 3063 3065 3067 3070 3072 3075 3078 3082 3085 3087 3090 3092 3094 3097 3100 3102 3104 3107 3110 3113 3116 3120 3123 3126 3129 3131 3132 3132 3133 3134 3137 3139 3142 3143 3145 3147 3148 3149 3149 3150 3153 3154 3155 3157 3159 3161 3162 3164 3166 3167 3169 3170 3171 3172 3173 3174 3176 3177 3177 3178 3180 3180 3181 3182 3182 3183 3184 3185
3055 3053 3051 3048 3046 3043 3041 3038 3036 3033 3031 3029 3028 3028 3028 3029 3030 3031 3032 3032 3033 3033 3034 3035 3036 3038 3039 3042 3043 3045 3047 3049 3052 3055 3058 3060 3062 3065 3067 3070 3073 3076 3079 3082 3085 3088 3091 3092 3095 3098 3101 3103 3106 3108 3111 3114 3118 3122 3125 3127 3129 3130 3130 3131 3132 3135 3137 3140 3142 3143 3144 3146 3148 3148 3149 3151 3152 3154 3156 3157 3159 3161 3163 3164 3166 3167 3168 3170 3171 3172 3173 3175 3176 3177 3177 3178 3179 3180 3181 3182 3182 3183 3184
3053 3051 3049 3046 3043 3041 3038 3036 3033 3031 3028 3026 3024 3023 3024 3025 3026 3027 3028 3029 3029 3030 3031 3032 3033 3034 3037 3039 3041 3042 3044 3047 3049 3052 3055 3058 3060 3063 3065 3068 3071 3074 3077 3080 3083 3087 3089 3091 3093 3097 3099 3101 3104 3107 3109 3112 3116 3119 3123 3126 3127 3128 3128 3129 3131 3133 3136 3138 3140 3141 3142 3144 3147 3148 3148 3150 3151 3153 3154 3156 3158 3160 3161 3163 3165 3166 3167 3168 3170 3171 3172 3174 3175 3176 3177 3177 3178 3179 3180 3181 3182 3182 3183
3052 3049 3047 3044 3041 3038 3036 3033 3031 3028 3025 3023 3021 3020 3021 3022 3023 3024 3025 3025 3026 3027 3027 3029 3030 3032 3033 3036 3038 3040 3042 3044 3047 3050 3053 3055 3058 3060 3063 3066 3069 3072 3075 3078 3082 3084 3087 3090 3092 3094 3097 3099 3102 3105 3108 3111 3114 3117 3120 3123 3125 3126 3127 3128 3129 3131 3133 3135 3137 3138 3140 3142 3145 3146 3147 3148 3150 3151 3153 3155 3157 3158 3160 3162 3163 3165 3166 3167 3169 3170 3171 3172 3174 3175 3176 3177 3177 3178 3179 3180 3181 3182 3182
3050 3048 3045 3042 3040 3037 3033 3031 3028 3026 3023 3021 3019 3018 3019 3020 3021 3022 3022 3022 3023 3024 3024 3026 3027 3028 3031 3033 3035 3037 3039 3041 3044 3047 3050 3053 3056 3058 3061 3064 3067 3070 3073 3077 3079 3082 3085 3088 3091 3093 3095 3097 3100 3103 3106 3109 3112 3115 3118 3121 3123 3124 3125 3127 3128 3130 3131 3133 3135 3136 3138 3140 3142 3144 3145 3147 3148 3150 3152 3154 3155 3157 3159 3161 3162 3164 3165 3166 3167 3169 3170 3172 3172 3173 3175 3176 3177 3177 3178 3179 3180 3181 3182
3049 3047 3044 3041 3038 3035 3032 3029 3026 3024 3022 3019 3018 3017 3017 3018 3019 3019 3020 3020 3021 3021 3022 3023 3024 3026 3028 3030 3032 3035 3037 3039 3042 3045 3048 3051 3053 3057 3059 3062 3065 3068 3072 3074 3077 3080 3083 3086 3089 3091 3093 3096 3098 3101 3104 3107 3110 3112 3116 3119 3121 3122 3124 3125 3127 3128 3129 3131 3133 3135 3137 3139 3141 3142 3144 3146 3147 3149 3151 3152 3154 3156 3157 3159 3161 3162 3164 3165 3167 3168 3169 3171 3171 3171 3174 3175 3176 3177 3177 3178 3179 3180 3181
3048 3045 3042 3040 3037 3033 3030 3027 3025 3022 3020 3019 3018 3017 3017 3017 3017 3018 3018 3018 3019 3019 3020 3020 3022 3023 3025 3027 3030 3032 3034 3037 3040 3043 3046 3049 3052 3054 3057 3060 3063 3066 3070 3073 3076 3079 3082 3085 3087 3089 3091 3093 3096 3099 3101 3105 3108 3110 3113 3116 3118 3120 3122 3124 3125 3127 3128 3129 3132 3133 3135 3137 3139 3141 3142 3144 3146 3148 3150 3152 3153 3155 3156 3158 3159 3161 3163 3164 3165 3167 3168 3169 3171 3172 3173 3174 3175 3176 3176 3177 3178 3179 3180
3047 3044 3042 3038 3035 3032 3028 3026 3023 3021 3019 3018 3017 3017 3017 3016 3016 3017 3017 3017 3017 3017 3018 3018 3020 3022 3023 3025 3027 3030 3032 3035 3038 3041 3044 3047 3050 3052 3055 3058 3061 3064 3067 3071 3073 3076 3080 3083 3086 3088 3089 3092 3094 3097 3099 3102 3106 3108 3111 3113 3116 3118 3120 3122 3124 3125 3126 3128 3130 3132 3134 3136 3138 3140 3142 3142 3144 3147 3149 3151 3152 3153 3155 3157 3158 3160 3161 3163 3164 3166 3167 3168 3170 3171 3172 3173 3174 3175 3175 3176 3177 3178 3179
3046 3043 3041 3037 3034 3030 3027 3024 3022 3020 3019 3017 3017 3016 3016 3015 3015 3015 3015 3015 3015 3015 3016 3017 3018 3020 3022 3023 3025 3028 3030 3033 3036 3039 3042 3045 3048 3051 3054 3057 3060 3063 3066 3069 3072 3075 3078 3081 3084 3087 3088 3090 3092 3094 3097 3100 3103 3106 3108 3111 3113 3116 3118 3121 3122 3123 3125 3127 3129 3131 3132 3135 3137 3138 3140 3142 3143 3145 3147 3149 3151 3152 3154 3155 3157 3159 3160 3162 3163 3164 3166 3167 3168 3170 3171 3172 3172 3173 3174 3175 3176 3177 3178
3046 3042 3040 3037 3033 3029 3026 3022 3020 3019 3017 3016 3015 3015 3014 3014 3013 3013 3013 3013 3013 3013 3014 3015 3017 3019 3020 3022 3024 3027 3029 3032 3034 3037 3040 3043 3046 3049 3052 3055 3058 3062 3064 3067 3070 3074 3077 3080 3082 3084 3086 3088 3090 3092 3095 3098 3102 3104 3106 3108 3111 3114 3116 3119 3121 3122 3123 3126 3128 3130 3131 3133 3135 3137 3139 3141 3143 3144 3146 3147 3149 3150 3152 3154 3156 3157 3159 3161 3162 3163 3164 3165 3167 3168 3169 3170 3171 3172 3173 3174 3175 3176 3177
3045 3042 3039 3036 3032 3028 3025 3022 3019 3017 3016 3015 3014 3013 3013 3012 3012 3012 3012 3012 3012 3012 3012 3013 3015 3017 3018 3021 3023 3025 3027 3030 3033 3036 3039 3042 3045 3048 3051 3054 3057 3060 3063 3065 3068 3072 3076 3079 3081 3082 3084 3086 3088 3090 3093 3097 3100 3102 3104 3106 3109 3112 3115 3117 3120 3121 3122 3124 3127 3129 3130 3132 3133 3136 3138 3140 3141 3142 3144 3145 3147 3149 3151 3152 3154 3156 3158 3159 3161 3162 3163 3164 3165 3167 3167 3169 3170 3171 3172 3173 3174 3175 3176
3044 3042 3039 3035 3031 3027 3024 3021 3018 3016 3014 3013 3012 3012 3012 3011 3011 3011 3011 3010 3011 3011 3011 3012 3013 3015 3017 3020 3022 3024 3026 3029 3032 3035 3038 3041 3044 3047 3050 3053 3056 3059 3062 3064 3067 3071 3075 3077 3079 3081 3083 3085 3087 3088 3091 3094 3098 3101 3102 3104 3107 3110 3113 3116 3118 3120 3121 3123 3125 3127 3130 3131 3132 3135 3137 3138 3140 3141 3142 3144 3145 3147 3149 3151 3153 3155 3156 3158 3160 3161 3162 3163 3165 3166 3167 3168 3169 3171 3172 3172 3173 3174 3175
3044 3041 3038 3035 3031 3027 3023 3020 3018 3015 3013 3012 3011 3010 3010 3010 3010 3010 3009 3009 3009 3010 3010 3011 3012 3014 3016 3019 3021 3023 3026 3028 3032 3035 3037 3040 3043 3046 3049 3052 3055 3057 3060 3062 3066 3069 3072 3075 3077 3079 3082 3084 3086 3087 3089 3092 3096 3099 3100 3102 3105 3108 3112 3114 3117 3118 3119 3121 3123 3126 3128 3130 3132 3134 3136 3137 3138 3140 3141 3142 3144 3146 3148 3150 3152 3153 3155 3157 3158 3160 3161 3162 3163 3165 3166 3167 3168 3170 3170 3172 3172 3173 3174
3043 3041 3038 3035 3030 3027 3023 3021 3018 3016 3014 3012 3010 3009 3009 3009 3009 3008 3007 3008 3008 3009 3009 3011 3012 3013 3016 3018 3020 3022 3025 3028 3031 3034 3037 3040 3042 3046 3048 3051 3054 3057 3060 3062 3065 3067 3070 3072 3075 3077 3080 3082 3084 3086 3088 3091 3095 3097 3099 3101 3104 3107 3110 3112 3114 3116 3117 3119 3122 3124 3127 3128 3130 3132 3134 3135 3137 3138 3140 3141 3142 3145 3147 3148 3150 3152 3153 3155 3157 3158 3160 3161 3162 3164 3165 3166 3167 3168 3169 3170 3172 3172 3173
3043 3041 3038 3035 3031 3027 3024 3022 3020 3017 3015 3013 3012 3010 3009 3009 3008 3007 3007 3007 3008 3008 3008 3010 3011 3013 3015 3018 3020 3022 3025 3028 3031 3034 3037 3039 3042 3045 3048 3050 3053 3056 3059 3062 3064 3066 3069 3071 3073 3075 3078 3080 3082 3085 3087 3090 3094 3097 3098 3100 3102 3105 3108 3110 3112 3113 3115 3118 3121 3123 3125 3127 3130 3132 3133 3134 3135 3137 3138 3140 3141 3143 3145 3147 3149 3151 3152 3154 3156 3157 3159 3160 3161 3162 3164 3165 3166 3167 3168 3169 3170 3171 3172
3043 3041 3038 3035 3031 3027 3024 3022 3020 3018 3016 3014 3012 3010 3009 3008 3007 3007 3006 3006 3007 3007 3008 3009 3011 3013 3015 3017 3020 3022 3025 3028 3031 3034 3037 3039 3042 3045 3047 3049 3052 3055 3058 3060 3062 3065 3067 3070 3072 3074 3077 3078 3081 3084 3086 3090 3093 3096 3097 3099 3102 3104 3107 3109 3110 3112 3114 3117 3119 3121 3123 3126 3128 3130 3132 3133 3134 3135 3137 3138 3140 3142 3144 3146 3147 3149 3151 3152 3154 3156 3157 3159 3160 3161 3162 3164 3165 3166 3167 3168 3169 3170 3171
3043 3040 3038 3035 3032 3028 3025 3022 3021 3019 3017 3015 3012 3009 3008 3008 3007 3006 3006 3005 3006 3007 3007 3008 3010 3013 3015 3018 3021 3023 3026 3028 3031 3034 3036 3039 3042 3045 3046 3048 3051 3053 3056 3060 3062 3063 3066 3069 3072 3073 3075 3077 3080 3083 3086 3089 3092 3094 3096 3098 3101 3103 3106 3107 3109 3111 3113 3117 3119 3120 3122 3124 3126 3128 3130 3131 3132 3133 3135 3137 3139 3141 3142 3144 3146 3148 3149 3151 3153 3155 3156 3157 3159 3160 3161 3162 3164 3165 3166 3167 3168 3169 3170
3043 3040 3038 3035 3032 3029 3025 3023 3021 3020 3018 3016 3012 3008 3007 3008 3007 3007 3006 3005 3005 3006 3007 3009 3011 3013 3016 3019 3021 3024 3026 3029 3031 3034 3036 3039 3042 3044 3045 3048 3050 3052 3055 3058 3060 3062 3065 3068 3071 3073 3074 3077 3080 3082 3085 3087 3090 3092 3094 3096 3099 3102 3105 3106 3107 3109 3111 3114 3115 3117 3119 3122 3124 3126 3128 3129 3131 3132 3133 3135 3137 3139 3141 3142 3144 3146 3148 3149 3151 3153 3155 3156 3157 3159 3160 3161 3162 3163 3165 3166 3167 3168 3169
3043 3040 3038 3036 3033 3030 3026 3024 3022 3020 3019 3017 3014 3010 3007 3008 3008 3007 3006 3006 3006 3007 3008 3009 3011 3013 3017 3019 3022 3024 3026 3028 3031 3033 3037 3039 3041 3043 3045 3047 3051 3053 3055 3057 3059 3062 3064 3066 3069 3071 3074 3076 3079 3081 3083 3086 3088 3090 3092 3094 3097 3100 3102 3103 3105 3107 3110 3111 3112 3115 3118 3121 3122 3124 3126 3128 3129 3131 3132 3134 3135 3137 3139 3141 3142 3144 3146 3148 3150 3151 3153 3154 3156 3157 3158 3160 3161 3162 3163 3164 3166 3167 3168
3043 3041 3038 3036 3033 3030 3027 3024 3022 3021 3020 3018 3016 3013 3009 3009 3008 3008 3008 3007 3007 3008 3009 3011 3012 3014 3017 3020 3022 3024 3026 3029 3031 3033 3036 3038 3041 3042 3045 3047 3050 3053 3055 3056 3059 3061 3062 3065 3068 3070 3073 3075 3077 3080 3082 3084 3086 3088 3090 3092 3095 3097 3100 3102 3104 3106 3108 3110 3112 3114 3117 3120 3121 3123 3124 3126 3128 3129 3131 3132 3134 3135 3137 3139 3141 3142 3144 3146 3148 3150 3151 3153 3154 3156 3157 3158 3160 3161 3162 3163 3165 3166 3167
3043 3041 3038 3036 3034 3031 3028 3025 3023 3022 3021 3019 3018 3016 3013 3012 3011 3009 3008 3009 3009 3010 3011 3013 3015 3016 3017 3020 3023 3025 3027 3029 3032 3034 3036 3038 3039 3041 3044 3047 3050 3053 3054 3056 3058 3060 3062 3064 3067 3069 3071 3074 3076 3078 3080 3082 3084 3086 3088 3091 3093 3095 3098 3101 3103 3105 3107 3109 3111 3114 3116 3118 3120 3121 3123 3124 3126 3127 3129 3131 3132 3134 3136 3137 3139 3140 3142 3144 3146 3148 3149 3151 3152 3154 3156 3157 3158 3160 3161 3161 3163 3164 3165
3042 3041 3038 3036 3034 3032 3029 3027 3025 3023 3022 3021 3020 3018 3016 3015 3014 3012 3010 3010 3011 3012 3013 3014 3016 3017 3018 3021 3023 3026 3027 3030 3032 3034 3035 3037 3037 3039 3042 3046 3050 3052 3054 3056 3058 3060 3062 3064 3066 3068 3070 3072 3075 3077 3079 3081 3083 3085 3087 3089 3092 3094 3097 3099 3102 3104 3106 3107 3110 3112 3115 3117 3118 3120 3121 3123 3124 3126 3127 3129 3131 3133 3135 3136 3137 3138 3140 3142 3144 3146 3147 3149 3151 3152 3154 3155 3156 3157 3160 3161 3162 3163 3164
3042 3040 3038 3037 3035 3033 3031 3028 3026 3025 3023 3022 3021 3019 3018 3016 3016 3016 3015 3013 3013 3014 3015 3016 3017 3018 3019 3021 3023 3026 3029 3031 3033 3034 3036 3037 3038 3040 3042 3046 3048 3051 3053 3055 3057 3060 3062 3064 3066 3067 3069 3071 3073 3075 3077 3079 3082 3084 3086 3088 3090 3092 3095 3098 3101 3103 3104 3106 3108 3111 3113 3115 3116 3118 3120 3122 3124 3124 3125 3127 3130 3132 3133 3135 3136 3137 3139 3140 3142 3144 3146 3147 3149 3150 3152 3153 3155 3156 3158 3159 3160 3161 3163
3042 3040 3038 3037 3035 3033 3032 3029 3027 3026 3025 3023 3022 3021 3020 3018 3017 3017 3017 3017 3016 3016 3017 3018 3019 3020 3021 3022 3025 3028 3030 3032 3034 3036 3037 3038 3039 3041 3044 3046 3048 3050 3051 3052 3055 3058 3061 3063 3065 3067 3066 3068 3070 3073 3075 3077 3080 3082 3084 3086 3088 3090 3093 3096 3099 3102 3103 3106 3107 3109 3111 3113 3114 3116 3118 3122 3124 3124 3123 3125 3128 3130 3132 3133 3135 3136 3137 3139 3141 3143 3144 3146 3147 3148 3150 3152 3153 3155 3156 3158 3159 3160 3162
3042 3041 3039 3037 3035 3034 3032 3031 3029 3027 3025 3025 3024 3023 3022 3020 3019 3019 3018 3019 3020 3020 3019 3020 3021 3021 3022 3024 3027 3029 3030 3032 3034 3036 3038 3039 3040 3041 3043 3045 3047 3049 3050 3052 3053 3055 3057 3059 3062 3064 3064 3066 3068 3071 3073 3076 3078 3080 3082 3085 3087 3088 3090 3093 3097 3100 3103 3104 3106 3108 3110 3112 3113 3115 3117 3120 3122 3124 3122 3124 3126 3128 3130 3132 3133 3135 3136 3138 3140 3142 3143 3144 3146 3147 3148 3150 3152 3153 3155 3156 3157 3159 3160
3042 3041 3039 3037 3036 3034 3033 3032 3029 3027 3026 3026 3025 3024 3023 3022 3022 3021 3021 3021 3022 3022 3023 3023 3023 3024 3025 3027 3028 3030 3031 3032 3034 3036 3037 3039 3040 3041 3042 3044 3047 3050 3051 3052 3052 3053 3055 3057 3060 3062 3064 3065 3067 3069 3071 3073 3076 3078 3081 3083 3085 3087 3088 3091 3094 3097 3101 3103 3105 3107 3109 3111 3112 3114 3116 3118 3121 3122 3122 3123 3125 3127 3129 3130 3132 3133 3135 3137 3138 3140 3142 3143 3144 3145 3147 3148 3150 3152 3153 3155 3156 3157 3159
3043 3041 3039 3037 3036 3035 3033 3032 3030 3027 3026 3026 3026 3025 3024 3024 3024 3023 3023 3022 3022 3023 3024 3025 3025 3025 3026 3028 3029 3031 3032 3032 3034 3036 3038 3039 3040 3041 3042 3044 3046 3047 3049 3050 3051 3052 3055 3057 3061 3064 3064 3064 3065 3067 3068 3071 3073 3076 3079 3081 3083 3085 3086 3088 3092 3095 3098 3102 3103 3105 3107 3110 3112 3113 3114 3117 3118 3119 3120 3121 3123 3125 3127 3128 3130 3132 3133 3135 3136 3138 3139 3141 3142 3144 3145 3147 3148 3150 3152 3153 3155 3156 3157
3043 3041 3039 3038 3036 3035 3034 3032 3030 3028 3027 3027 3027 3026 3026 3025 3025 3025 3024 3024 3023 3024 3024 3026 3026 3027 3027 3028 3030 3031 3032 3033 3034 3036 3038 3039 3041 3042 3042 3044 3045 3045 3046 3047 3049 3052 3055 3057 3060 3061 3061 3062 3064 3066 3067 3069 3072 3074 3077 3080 3082 3083 3085 3087 3090 3093 3097 3099 3102 3104 3106 3108 3110 3112 3113 3115 3116 3117 3118 3119 3121 3122 3124 3126 3128 3130 3131 3133 3134 3136 3137 3139 3141 3142 3144 3145 3147 3148 3150 3152 3153 3154 3156
3043 3042 3040 3038 3037 3035 3034 3033 3031 3030 3028 3028 3028 3028 3027 3026 3026 3026 3026 3025 3025 3025 3026 3026 3027 3028 3028 3029 3030 3031 3032 3033 3035 3036 3038 3039 3040 3041 3042 3043 3045 3046 3047 3048 3050 3052 3054 3057 3058 3058 3058 3061 3062 3064 3066 3069 3071 3073 3076 3078 3080 3082 3084 3087 3089 3092 3095 3097 3100 3102 3104 3106 3108 3110 3112 3113 3114 3115 3117 3118 3119 3120 3122 3124 3126 3127 3129 3131 3132 3134 3135 3137 3139 3141 3142 3144 3146 3147 3149 3150 3152 3152 3154
3043 3042 3040 3038 3037 3035 3034 3033 3032 3031 3029 3028 3028 3028 3028 3027 3027 3027 3027 3027 3026 3026 3027 3027 3027 3028 3029 3030 3031 3032 3033 3033 3035 3037 3039 3040 3042 3042 3043 3044 3046 3047 3048 3049 3050 3052 3053 3055 3057 3057 3057 3058 3061 3065 3067 3068 3070 3072 3075 3077 3078 3081 3083 3085 3088 3090 3092 3095 3097 3100 3102 3104 3106 3108 3110 3111 3112 3113 3115 3116 3117 3118 3120 3122 3123 3125 3127 3129 3131 3132 3134 3136 3137 3139 3141 3143 3144 3146 3147 3148 3150 3151 3152
3043 3042 3041 3039 3037 3036 3034 3033 3032 3032 3030 3029 3028 3028 3029 3028 3028 3028 3028 3028 3028 3027 3027 3027 3027 3028 3029 3030 3031 3032 3033 3034 3036 3037 3039 3041 3042 3043 3044 3045 3046 3047 3048 3048 3049 3050 3052 3054 3056 3057 3056 3056 3057 3062 3065 3067 3069 3071 3073 3075 3077 3079 3081 3083 3086 3088 3090 3093 3095 3097 3100 3102 3104 3106 3107 3109 3110 3112 3113 3114 3115 3116 3117 3119 3120 3122 3124 3127 3128 3130 3132 3134 3136 3138 3140 3141 3143 3144 3146 3147 3148 3150 3151
3042 3042 3041 3039 3038 3036 3035 3034 3033 3032 3031 3030 3029 3029 3029 3029 3029 3029 3029 3029 3028 3028 3028 3028 3028 3028 3029 3031 3031 3032 3033 3035 3036 3037 3038 3040 3042 3044 3045 3046 3047 3048 3048 3049 3050 3051 3052 3054 3056 3057 3056 3056 3057 3059 3061 3064 3067 3070 3072 3073 3076 3078 3080 3082 3084 3086 3088 3091 3093 3095 3097 3100 3102 3103 3105 3107 3108 3110 3112 3113 3114 3115 3116 3117 3118 3120 3122 3124 3127 3128 3130 3132 3134 3136 3138 3139 3141 3143 3144 3146 3147 3148 3150